"America/Chicago Time","Lifetime Energy (kWh)","Power (W)","AC Volts RMS (V) ","AC Amps RMS (mA)","Grid Frequency (Hz)","Inverter Temperature (C)"
"05/09/12 09:27:14","72.625","141.5","217.56","656","60.03","24"
"05/09/12 09:32:14","72.6362","143.7","216.75","670","60.03","25"
"05/09/12 09:37:14","72.6474","146.3","217.44","678","60.03","25"
"05/09/12 09:42:14","72.6591","150.0","217.18","696","60.03","26"
"05/09/12 09:47:14","72.6709","152.4","217.05","707","60.03","26"
"05/09/12 09:52:13","72.6828","155.1","217.58","714","60.0","26"
"05/09/12 09:57:14","72.695","159.3","217.35","734","60.03","26"
"05/09/12 10:02:13","72.7076","163.0","218.38","748","60.03","27"
"05/09/12 10:07:14","72.7204","164.6","218.31","748","60.0","27"
"05/09/12 10:12:13","72.7331","169.2","217.66","770","60.03","27"
"05/09/12 10:17:14","72.7464","171.4","218.78","776","60.03","27"
"05/09/12 10:22:14","72.7598","171.3","217.41","782","60.03","28"
"05/09/12 10:27:14","72.7733","172.6","217.77","784","60.03","28"
"05/09/12 10:32:13","72.7868","174.3","217.24","797","60.0","28"
"05/09/12 10:37:13","72.8004","176.5","218.06","804","60.03","29"
"05/09/12 10:42:14","72.8143","178.6","218.01","806","59.96","29"
"05/09/12 10:47:14","72.8283","180.1","217.88","822","60.0","29"
"05/09/12 10:52:14","72.8424","181.0","218.0","818","60.03","29"
"05/09/12 10:57:14","72.8565","182.2","218.12","824","60.03","30"
"05/09/12 11:02:14","72.8708","184.5","218.68","833","60.03","30"
"05/09/12 11:07:15","72.8853","187.5","217.41","856","60.0","30"
"05/09/12 11:12:13","72.8999","187.6","217.98","855","60.03","30"
"05/09/12 11:17:14","72.9146","188.3","218.38","857","60.03","30"
"05/09/12 11:22:14","72.9294","191.0","217.64","865","60.0","30"
"05/09/12 11:27:13","72.9442","191.1","217.95","865","60.03","30"
"05/09/12 11:32:14","72.9593","192.6","218.04","869","60.0","30"
"05/09/12 11:37:14","72.9743","191.7","217.66","869","60.0","31"
"05/09/12 11:42:13","72.9892","192.6","217.29","875","60.03","31"
"05/09/12 11:47:15","73.0044","194.8","217.76","884","60.03","30"
"05/09/12 11:52:14","73.0195","193.6","217.5","877","60.0","31"
"05/09/12 11:57:13","73.0345","193.9","217.27","878","60.03","32"
"05/09/12 12:02:13","73.0497","193.6","218.05","879","60.03","32"
"05/09/12 12:07:14","73.0648","193.9","217.97","875","60.0","32"
"05/09/12 12:12:13","73.0799","193.1","217.82","883","60.03","31"
"05/09/12 12:17:14","73.095","194.0","218.28","875","60.03","32"
"05/09/12 12:22:14","73.1101","194.0","217.83","880","60.03","32"
"05/09/12 12:27:13","73.1251","194.4","218.09","873","60.03","31"
"05/09/12 12:32:13","73.1403","193.9","217.5","876","60.0","31"
"05/09/12 12:37:15","73.1555","193.9","218.2","881","60.07","31"
"05/09/12 12:42:13","73.1706","194.2","217.14","880","60.0","30"
"05/09/12 12:47:13","73.1858","194.2","216.9","884","60.0","29"
"05/09/12 12:52:14","73.201","194.8","217.17","885","60.03","29"
"05/09/12 12:57:14","73.2161","195.0","218.6","875","60.03","28"
"05/09/12 13:02:15","73.2313","194.7","219.1","879","60.03","28"
"05/09/12 13:07:13","73.2463","193.9","217.97","880","60.03","28"
"05/09/12 13:12:14","73.2614","192.9","218.01","874","60.07","29"
"05/09/12 13:17:14","73.2764","193.0","217.26","875","60.03","29"
"05/09/12 13:22:15","73.2915","191.8","216.49","878","60.0","29"
"05/09/12 13:27:14","73.3064","192.4","217.86","872","60.03","29"
"05/09/12 13:32:13","73.3213","191.5","217.47","870","60.03","29"
"05/09/12 13:37:14","73.3362","190.6","217.23","864","60.03","29"
"05/09/12 13:42:14","73.351","188.2","216.34","859","60.03","29"
"05/09/12 13:47:14","73.3656","189.8","217.01","859","60.0","28"
"05/09/12 13:52:15","73.3803","185.7","216.53","851","60.0","28"
"05/09/12 13:57:14","73.3947","184.1","217.63","844","60.03","28"
"05/09/12 14:02:13","73.409","184.4","217.36","838","60.0","28"
"05/09/12 14:07:13","73.4232","181.0","216.17","829","60.0","28"
"05/09/12 14:12:14","73.4374","180.9","216.67","828","60.03","28"
"05/09/12 14:17:13","73.4512","178.2","217.21","815","60.03","28"
"05/09/12 14:22:15","73.4651","176.2","217.41","807","60.03","28"
"05/09/12 14:27:13","73.4787","174.2","217.73","795","60.03","28"
"05/09/12 14:32:13","73.4921","171.9","217.94","779","60.03","29"
"05/09/12 14:37:14","73.5053","169.1","217.75","773","60.03","29"
"05/09/12 14:42:14","73.5185","167.0","217.83","762","60.0","29"
"05/09/12 14:47:13","73.5314","165.7","216.5","755","60.03","29"
"05/09/12 14:52:15","73.5444","165.3","216.53","761","60.03","27"
"05/09/12 14:57:14","73.5571","161.0","216.66","745","60.03","27"
"05/09/12 15:02:14","73.5696","158.3","216.63","732","60.07","27"
"05/09/12 15:07:14","73.5818","156.1","216.69","720","60.03","27"
"05/09/12 15:12:14","73.5938","151.5","217.51","699","60.03","27"
"05/09/12 15:17:14","73.6055","149.6","217.35","689","60.03","27"
"05/09/12 15:22:15","73.6171","146.5","216.93","682","60.03","27"
"05/09/12 15:27:13","73.6284","143.8","217.91","666","60.03","27"
"05/09/12 15:32:15","73.6396","141.5","216.23","660","60.03","27"
"05/09/12 15:37:14","73.6505","138.4","216.83","642","60.03","27"
"05/09/12 15:42:13","73.6611","134.6","216.9","626","60.0","27"
"05/09/12 15:47:14","73.6715","132.1","216.81","619","60.03","27"
"05/09/12 15:52:14","73.6817","129.1","217.62","600","60.03","26"
"05/09/12 15:57:14","73.6915","126.3","217.45","592","60.03","26"
"05/09/12 16:02:14","73.7013","122.7","217.17","577","60.03","25"
"05/09/12 16:07:14","73.7106","119.2","217.78","557","60.03","25"
"05/09/12 16:12:14","73.7198","114.8","217.05","545","60.03","25"
"05/09/12 16:17:14","73.7286","111.0","217.3","525","60.0","25"
"05/09/12 16:22:15","73.7371","107.6","216.46","511","60.03","25"
"05/09/12 16:27:14","73.7453","103.4","216.17","495","60.0","25"
"05/09/12 16:32:14","73.7532","100.6","216.09","481","60.03","24"
"05/09/12 16:37:13","73.7608","96.9","216.15","464","60.03","24"
"05/09/12 16:42:14","73.7682","92.5","215.92","450","60.03","23"
"05/09/12 16:47:14","73.7753","88.6","215.61","431","60.0","23"
"05/09/12 16:52:14","73.782","84.0","215.15","410","60.03","22"
"05/09/12 16:57:14","73.7883","79.1","215.94","392","60.03","23"
"05/09/12 17:02:14","73.7943","74.8","215.27","376","60.03","23"
"05/09/12 17:07:14","73.7999","70.6","214.84","354","60.0","23"
"05/09/12 17:12:17","73.8053","66.6","215.41","336","60.0","23"
"05/09/12 17:17:18","73.8103","62.1","215.42","319","60.03","23"
"05/09/12 17:22:17","73.8146","46.2","216.05","394","60.0","23"
"05/09/12 17:27:18","73.8184","44.1","215.09","366","60.03","22"
"05/09/12 17:32:19","73.8224","56.5","214.67","279","60.0","22"
"05/09/12 17:37:18","73.826","40.3","215.09","108","60.03","22"
"05/09/12 17:42:17","73.8294","36.6","214.48","161","60.03","22"
"05/09/12 17:47:18","73.8323","30.8","214.53","86","60.03","21"
"05/09/12 17:52:18","73.8348","26.8","214.54","230","60.03","21"
"05/09/12 17:57:19","73.8371","31.7","214.95","180","60.03","20"
"05/09/12 18:02:17","73.8391","20.8","214.19","84","60.0","20"
"05/09/12 18:07:19","73.8409","29.3","214.3","93","60.03","20"
"05/09/12 18:12:18","73.8425","29.1","214.03","57","60.03","19"
"05/09/12 18:17:18","73.8437","14.6","213.83","100","60.03","19"
"05/09/12 18:22:17","73.8448","15.2","213.41","1","60.0","19"
"05/09/12 18:27:18","73.8456","12.7","213.24","2","60.0","18"
"05/09/12 18:32:17","73.8463","14.4","213.61","26","60.03","18"
"05/09/12 18:37:18","73.8468","0.0","213.65","0","60.03","18"
"05/09/12 18:42:19","73.8472","0.0","213.73","0","60.07","18"
"05/09/12 18:47:17","73.8476","14.7","213.13","2","60.0","18"
"05/09/12 18:57:19","73.8481","10.3","213.17","221","60.0","17"
"05/09/12 19:02:17","73.8484","6.7","213.9","224","60.03","17"
"05/09/12 19:07:19","73.8486","0.0","213.36","0","60.0","17"
"05/09/12 19:17:18","73.8489","0.0","213.37","0","60.0","16"
"05/10/12 06:37:18","73.8499","0.0","213.92","0","60.03","12"
"05/10/12 06:42:18","73.8506","13.0","213.83","22","60.03","13"
"05/10/12 06:47:18","73.8516","11.6","213.46","17","60.03","13"
"05/10/12 06:52:18","73.8527","15.3","213.38","75","60.03","13"
"05/10/12 06:57:18","73.8542","21.9","213.74","21","60.11","14"
"05/10/12 07:02:19","73.8558","28.1","214.6","36","60.0","15"
"05/10/12 07:07:19","73.8579","29.5","213.86","57","60.03","15"
"05/10/12 07:12:19","73.8602","36.6","215.58","123","60.0","15"
"05/10/12 07:17:18","73.8628","39.9","215.24","312","60.03","16"
"05/10/12 07:22:19","73.8657","46.3","214.31","177","60.03","17"
"05/10/12 07:27:18","73.869","40.3","215.13","259","60.03","17"
"05/10/12 07:32:19","73.8725","55.5","214.21","109","60.03","18"
"05/10/12 07:37:18","73.8764","47.5","213.58","196","60.0","18"
"05/10/12 07:42:18","73.8803","39.6","213.88","252","60.03","18"
"05/10/12 07:47:19","73.8842","65.2","214.51","264","60.0","19"
"05/10/12 07:52:18","73.8892","67.0","215.36","339","60.03","19"
"05/10/12 07:57:19","73.8946","71.5","215.29","355","60.0","20"
"05/10/12 08:02:19","73.9003","75.6","215.26","378","60.03","20"
"05/10/12 08:07:18","73.9064","80.3","215.17","398","60.0","21"
"05/10/12 08:12:19","73.9127","84.2","215.83","414","60.0","22"
"05/10/12 08:17:19","73.9195","88.4","214.77","435","60.0","22"
"05/10/12 08:22:19","73.9265","93.1","214.49","450","60.03","22"
"05/10/12 08:27:20","73.934","97.5","214.36","470","60.03","23"
"05/10/12 08:32:19","73.9417","101.1","214.79","488","60.03","23"
"05/10/12 08:37:18","73.9497","104.6","214.6","505","60.03","24"
"05/10/12 08:42:19","73.9579","108.5","214.46","522","60.03","24"
"05/10/12 08:47:19","73.9666","112.9","214.25","537","60.03","25"
"05/10/12 08:52:19","73.9755","116.0","213.32","556","60.03","25"
"05/10/12 08:57:19","73.9847","120.2","215.27","570","60.03","25"
"05/10/12 09:02:19","73.9942","123.6","215.14","582","60.03","26"
"05/10/12 09:07:19","74.004","126.6","215.29","597","60.03","26"
"05/10/12 09:12:19","74.014","129.5","214.76","612","60.03","27"
"05/10/12 09:17:19","74.0242","133.4","216.4","620","60.03","27"
"05/10/12 09:22:19","74.0347","136.5","216.71","638","60.03","28"
"05/10/12 09:27:19","74.0454","139.7","217.37","646","60.0","28"
"05/10/12 09:32:18","74.0564","142.1","216.41","662","60.03","28"
"05/10/12 09:37:19","74.0677","145.9","216.4","670","60.03","29"
"05/10/12 09:42:18","74.079","147.2","216.81","687","60.03","29"
"05/10/12 09:47:18","74.0906","150.8","217.05","692","60.03","29"
"05/10/12 09:52:19","74.1024","153.0","216.92","707","60.0","30"
"05/10/12 10:02:18","74.1266","157.2","216.26","722","60.0","31"
"05/10/12 10:07:18","74.1391","160.0","216.76","735","60.0","31"
"05/10/12 10:12:19","74.1515","162.1","216.18","745","60.03","32"
"05/10/12 10:17:19","74.1643","163.9","217.15","752","60.0","32"
"05/10/12 10:22:18","74.1771","166.3","217.22","758","60.0","32"
"05/10/12 10:27:18","74.1902","168.4","217.82","767","60.03","32"
"05/10/12 10:32:20","74.2033","169.6","217.58","771","60.0","33"
"05/10/12 10:37:19","74.2166","171.1","216.56","785","60.03","33"
"05/10/12 10:42:18","74.2299","173.1","217.27","791","60.03","34"
"05/10/12 10:47:19","74.2435","175.1","217.44","796","60.0","34"
"05/10/12 10:52:18","74.2571","176.6","217.27","809","60.03","34"
"05/10/12 10:57:18","74.2709","178.0","217.18","815","60.03","35"
"05/10/12 11:02:19","74.2848","179.5","217.75","818","60.0","35"
"05/10/12 11:07:19","74.2989","181.3","218.74","816","60.03","35"
"05/10/12 11:12:19","74.3129","181.0","218.16","822","60.03","36"
"05/10/12 11:17:18","74.327","182.3","218.65","822","60.03","36"
"05/10/12 11:22:19","74.3413","183.8","217.9","834","60.03","36"
"05/10/12 11:27:19","74.3557","185.2","218.02","837","60.03","36"
"05/10/12 11:32:19","74.3701","185.5","217.33","842","60.0","37"
"05/10/12 11:37:19","74.3847","186.7","217.88","846","60.03","37"
"05/10/12 11:42:20","74.3992","187.0","217.92","849","60.0","37"
"05/10/12 11:47:19","74.4138","188.8","218.19","854","60.03","37"
"05/10/12 11:52:19","74.4284","188.1","218.35","857","60.03","37"
"05/10/12 11:57:20","74.4432","188.8","218.3","858","60.03","37"
"05/10/12 12:02:18","74.4579","189.5","217.93","861","60.03","38"
"05/10/12 12:07:20","74.4727","190.4","217.66","860","60.03","38"
"05/10/12 12:12:18","74.4875","191.1","217.75","867","60.0","37"
"05/10/12 12:17:19","74.5024","190.3","217.55","863","60.0","38"
"05/10/12 12:22:18","74.5172","190.5","217.99","864","60.03","38"
"05/10/12 12:27:19","74.532","190.4","217.64","864","60.0","38"
"05/10/12 12:32:19","74.5469","191.3","217.31","862","60.0","38"
"05/10/12 12:37:20","74.5619","190.2","217.99","866","60.0","38"
"05/10/12 12:42:19","74.5765","188.7","217.43","858","60.03","38"
"05/10/12 12:47:18","74.5913","189.6","216.75","860","60.03","38"
"05/10/12 12:52:18","74.6061","189.7","217.26","865","60.0","38"
"05/10/12 12:57:19","74.6209","189.6","217.67","858","60.03","38"
"05/10/12 13:02:19","74.6357","187.7","218.03","855","60.03","38"
"05/10/12 13:07:19","74.6503","186.7","216.69","849","60.0","38"
"05/10/12 13:12:19","74.6648","186.1","216.93","847","60.0","38"
"05/10/12 13:17:19","74.6794","185.8","214.9","856","60.03","38"
"05/10/12 13:22:19","74.6937","184.6","217.09","834","60.03","39"
"05/10/12 13:27:19","74.7082","185.6","217.33","840","60.03","38"
"05/10/12 13:32:20","74.7225","183.1","217.51","830","60.0","38"
"05/10/12 13:37:19","74.7367","182.1","217.72","830","60.03","39"
"05/10/12 13:42:19","74.7508","182.1","217.85","829","60.0","38"
"05/10/12 13:47:18","74.7649","180.7","218.29","821","60.0","38"
"05/10/12 13:52:19","74.7789","178.3","218.88","807","60.03","38"
"05/10/12 13:57:19","74.7927","176.2","218.86","802","60.07","38"
"05/10/12 14:02:19","74.8065","175.1","218.32","800","60.03","38"
"05/10/12 14:07:18","74.82","173.9","218.77","789","60.0","39"
"05/10/12 14:12:20","74.8336","173.1","218.13","786","60.0","38"
"05/10/12 14:17:18","74.847","172.1","218.19","782","60.0","38"
"05/10/12 14:22:19","74.8603","169.1","218.53","771","60.03","38"
"05/10/12 14:27:18","74.8734","167.9","218.32","767","60.03","38"
"05/10/12 14:32:19","74.8865","165.8","217.46","760","60.03","38"
"05/10/12 14:37:18","74.8993","163.9","218.64","747","60.0","38"
"05/10/12 14:42:19","74.912","161.2","218.07","733","60.0","38"
"05/10/12 14:47:18","74.9245","159.1","218.65","728","60.03","38"
"05/10/12 14:52:20","74.9245","156.3","217.64","718","60.03","38"
"05/10/12 14:57:18","74.9366","155.6","217.57","710","60.0","37"
"05/10/12 15:02:19","74.9485","153.5","217.84","703","60.03","37"
"05/10/12 15:07:19","74.9604","150.1","217.85","688","60.03","37"
"05/10/12 15:12:18","74.9719","147.9","217.62","685","60.0","36"
"05/10/12 15:17:19","74.9834","145.6","217.19","668","60.0","36"
"05/10/12 15:22:18","74.9946","143.3","216.9","662","60.0","36"
"05/10/12 15:27:20","75.0057","139.6","217.15","648","60.0","35"
"05/10/12 15:32:18","75.0165","137.6","217.61","638","60.03","35"
"05/10/12 15:37:19","75.0271","134.2","217.8","622","60.03","35"
"05/10/12 15:42:20","75.0374","131.1","216.91","609","60.03","35"
"05/10/12 15:47:18","75.0475","128.4","217.23","601","60.03","35"
"05/10/12 15:52:18","75.0574","125.4","216.88","588","60.0","34"
"05/10/12 15:57:20","75.0671","122.2","216.91","576","60.07","34"
"05/10/12 16:02:19","75.0764","118.7","216.16","563","60.03","34"
"05/10/12 16:07:19","75.0855","115.5","216.79","543","60.03","33"
"05/10/12 16:12:19","75.0944","111.4","217.01","527","60.07","33"
"05/10/12 16:17:18","75.1029","108.4","217.53","508","60.03","33"
"05/10/12 16:22:19","75.1112","103.7","216.71","497","60.03","32"
"05/10/12 16:27:19","75.1192","100.3","217.64","478","60.03","32"
"05/10/12 16:32:18","75.1267","96.5","216.88","462","60.03","32"
"05/10/12 16:37:20","75.1341","92.9","216.79","442","60.0","32"
"05/10/12 16:42:19","75.1412","88.9","215.93","434","60.0","32"
"05/10/12 16:47:19","75.148","85.1","216.27","417","60.03","31"
"05/10/12 16:52:19","75.1544","81.1","217.11","395","60.03","31"
"05/10/12 16:57:18","75.1605","76.8","216.36","383","60.07","31"
"05/10/12 17:02:18","75.1663","72.7","216.58","359","60.03","31"
"05/10/12 17:07:19","75.1718","68.2","215.26","343","60.0","30"
"05/10/12 17:12:18","75.1769","63.4","215.53","325","60.0","31"
"05/10/12 17:17:18","75.1817","56.0","215.26","106","60.0","30"
"05/10/12 17:22:18","75.1858","49.2","215.01","361","60.0","30"
"05/10/12 17:27:19","75.19","62.1","215.53","332","60.03","30"
"05/10/12 17:32:19","75.1937","54.1","216.17","318","60.03","30"
"05/10/12 17:37:20","75.1972","49.2","215.45","142","60.03","29"
"05/10/12 17:42:18","75.2004","44.3","216.2","299","60.0","29"
"05/10/12 17:47:19","75.2033","39.7","215.08","162","60.0","29"
"05/10/12 17:52:19","75.2058","35.2","214.99","256","60.03","28"
"05/10/12 17:57:20","75.2081","18.2","215.0","180","60.03","28"
"05/10/12 18:02:19","75.21","25.5","215.34","33","60.03","28"
"05/10/12 18:07:19","75.2118","11.0","215.63","13","60.03","28"
"05/10/12 18:12:18","75.2131","14.0","214.6","37","60.03","27"
"05/10/12 18:17:18","75.2144","13.3","214.49","13","60.0","27"
"05/10/12 18:22:18","75.2153","14.6","213.56","179","60.03","26"
"05/10/12 18:27:19","75.2161","11.5","213.63","1","60.03","24"
"05/10/12 18:32:18","75.2168","0.0","213.34","0","60.03","24"
"05/10/12 18:37:19","75.2173","0.0","214.03","0","60.03","23"
"05/10/12 18:42:19","75.2176","11.9","214.47","7","60.03","22"
"05/10/12 18:57:20","75.2185","0.0","213.57","0","60.0","20"
"05/10/12 19:02:19","75.2187","0.0","212.85","0","60.0","20"
"05/11/12 06:27:20","75.2187","7.1","212.88","184","60.0","11"
"05/11/12 06:32:18","75.219","0.0","214.49","0","60.0","12"
"05/11/12 06:37:20","75.2196","7.2","213.76","0","60.0","13"
"05/11/12 06:42:18","75.2203","14.3","214.62","1","60.0","13"
"05/11/12 06:47:19","75.2213","19.6","214.43","233","60.03","13"
"05/11/12 06:52:20","75.2224","24.2","214.57","152","60.03","14"
"05/11/12 06:57:19","75.2239","11.9","213.93","133","60.03","15"
"05/11/12 07:02:19","75.2257","15.1","214.15","175","60.0","15"
"05/11/12 07:07:20","75.2277","32.0","211.77","148","60.0","16"
"05/11/12 07:12:20","75.2296","15.1","213.75","15","60.0","17"
"05/11/12 07:17:19","75.2319","29.1","214.93","258","60.03","17"
"05/11/12 07:22:20","75.2348","47.1","215.48","270","60.03","18"
"05/11/12 07:27:18","75.2378","32.4","214.75","266","60.0","18"
"05/11/12 07:32:20","75.2411","49.0","214.93","177","60.0","19"
"05/11/12 07:37:19","75.2451","57.2","215.31","80","60.03","19"
"05/11/12 07:42:18","75.2489","43.2","214.62","381","60.03","19"
"05/11/12 07:47:19","75.2517","34.1","213.37","181","60.0","20"
"05/11/12 07:52:20","75.2556","42.7","214.96","401","60.03","20"
"05/11/12 07:57:18","75.261","78.3","215.63","385","60.0","20"
"05/11/12 08:02:19","75.2672","79.4","215.4","391","60.0","21"
"05/11/12 08:07:19","75.2733","76.2","214.48","379","60.03","22"
"05/11/12 08:12:19","75.2793","84.3","214.51","411","60.03","22"
"05/11/12 08:17:20","75.2861","89.0","216.08","432","60.0","23"
"05/11/12 08:22:20","75.2932","93.4","215.66","454","60.03","23"
"05/11/12 08:27:20","75.3004","78.2","215.41","388","60.0","24"
"05/11/12 08:32:19","75.3073","100.4","216.8","482","60.0","24"
"05/11/12 08:37:20","75.3151","101.3","215.89","489","60.0","25"
"05/11/12 08:42:20","75.3233","104.0","215.06","502","60.0","25"
"05/11/12 08:47:19","75.3317","110.4","215.78","527","60.03","26"
"05/11/12 08:52:20","75.3403","111.9","215.8","533","60.0","26"
"05/11/12 08:57:19","75.3492","115.8","216.64","545","60.0","27"
"05/11/12 09:02:18","75.3583","117.7","215.93","560","60.0","27"
"05/11/12 09:07:20","75.3676","122.2","216.86","571","60.03","28"
"05/11/12 09:12:19","75.3773","126.3","216.79","594","60.0","28"
"05/11/12 09:17:18","75.3873","130.0","216.61","608","60.0","28"
"05/11/12 09:22:18","75.3974","132.7","217.01","617","60.03","29"
"05/11/12 09:27:19","75.4079","136.5","215.12","637","60.03","29"
"05/11/12 09:32:20","75.4187","138.4","215.43","644","60.0","30"
"05/11/12 09:37:20","75.4296","141.5","215.45","659","60.03","30"
"05/11/12 09:42:19","75.4407","146.2","216.79","679","60.03","31"
"05/11/12 09:47:20","75.4521","142.7","217.25","660","60.03","31"
"05/11/12 09:52:20","75.4635","148.6","216.75","688","60.0","32"
"05/11/12 09:57:20","75.4746","135.3","216.51","632","60.03","32"
"05/11/12 10:02:19","75.4851","134.9","216.48","628","60.03","32"
"05/11/12 10:07:20","75.4962","146.2","217.18","676","60.03","32"
"05/11/12 10:12:19","75.5077","143.7","217.62","665","60.0","33"
"05/11/12 10:17:19","75.5194","150.6","218.24","693","60.03","33"
"05/11/12 10:22:20","75.5309","144.9","217.63","668","59.96","33"
"05/11/12 10:27:20","75.5419","135.8","216.57","636","60.07","33"
"05/11/12 10:32:19","75.5537","164.4","217.59","750","59.96","34"
"05/11/12 10:37:19","75.5666","166.6","217.13","764","60.0","34"
"05/11/12 10:42:20","75.5798","170.9","217.43","783","60.0","35"
"05/11/12 10:47:18","75.5931","170.2","217.9","780","60.03","35"
"05/11/12 10:52:19","75.6062","167.8","217.43","766","60.0","36"
"05/11/12 10:57:19","75.6195","174.6","218.6","795","60.07","36"
"05/11/12 11:02:19","75.6329","172.0","218.17","781","60.0","37"
"05/11/12 11:07:20","75.6465","174.2","218.22","790","60.03","37"
"05/11/12 11:12:19","75.6601","176.5","217.83","803","60.03","37"
"05/11/12 11:17:19","75.6741","178.2","218.11","811","60.03","38"
"05/11/12 11:22:20","75.6878","177.5","218.01","810","60.03","38"
"05/11/12 11:27:20","75.7018","179.8","217.9","815","60.03","38"
"05/11/12 11:32:20","75.7156","179.3","218.31","809","60.03","38"
"05/11/12 11:37:20","75.7294","175.8","217.83","798","60.0","38"
"05/11/12 11:42:19","75.7426","168.0","217.57","767","60.03","38"
"05/11/12 11:47:20","75.7558","163.1","217.84","739","60.03","38"
"05/11/12 11:52:20","75.7685","162.3","217.7","743","60.03","37"
"05/11/12 11:57:20","75.7808","156.9","217.41","724","60.03","37"
"05/11/12 12:02:20","75.7929","158.3","217.72","724","60.03","37"
"05/11/12 12:07:19","75.805","169.4","218.7","771","60.0","37"
"05/11/12 12:12:18","75.8184","167.5","217.62","762","60.03","37"
"05/11/12 12:17:19","75.832","177.9","217.87","809","60.0","38"
"05/11/12 12:22:19","75.8456","176.4","217.17","807","60.03","38"
"05/11/12 12:27:20","75.8598","184.1","217.91","833","60.03","38"
"05/11/12 12:32:18","75.8739","176.4","217.26","806","60.03","39"
"05/11/12 12:37:18","75.8877","174.9","217.23","796","60.03","39"
"05/11/12 12:42:19","75.9015","180.3","217.66","816","60.0","40"
"05/11/12 12:47:20","75.9154","177.0","217.75","805","60.03","40"
"05/11/12 12:52:20","75.9267","173.3","217.59","792","60.03","39"
"05/11/12 12:57:19","75.9402","173.4","217.71","793","60.0","39"
"05/11/12 13:02:19","75.9545","180.2","218.35","822","60.03","39"
"05/11/12 13:07:20","75.9657","164.6","217.48","751","60.03","38"
"05/11/12 13:12:19","75.9791","170.9","218.2","778","60.03","38"
"05/11/12 13:17:19","75.9917","182.0","217.65","827","60.03","38"
"05/11/12 13:22:19","76.0026","69.9","215.0","377","60.03","37"
"05/11/12 13:27:19","76.0067","35.9","215.61","151","60.03","35"
"05/11/12 13:32:20","76.0106","44.4","215.13","137","60.03","34"
"05/11/12 13:37:19","76.0132","31.3","215.09","246","60.03","33"
"05/11/12 13:42:20","76.015","17.5","214.18","199","60.0","33"
"05/11/12 13:47:19","76.0166","20.6","214.45","225","60.03","32"
"05/11/12 13:52:20","76.0185","26.6","214.7","170","60.03","31"
"05/11/12 13:57:18","76.0216","44.2","214.03","386","60.0","30"
"05/11/12 14:02:20","76.0267","86.3","215.89","422","60.0","29"
"05/11/12 14:07:19","76.0346","152.3","216.91","707","60.03","30"
"05/11/12 14:17:18","76.0445","53.2","215.2","98","60.0","29"
"05/11/12 14:22:18","76.0508","95.0","216.31","458","60.03","29"
"05/11/12 14:27:19","76.0604","143.9","216.83","665","60.07","30"
"05/11/12 14:32:20","76.0702","94.1","215.76","456","60.03","30"
"05/11/12 14:37:20","76.0771","83.3","216.58","410","60.03","30"
"05/11/12 14:42:19","76.082","53.7","214.9","366","60.03","30"
"05/11/12 14:47:20","76.087","67.5","215.45","342","60.03","30"
"05/11/12 14:52:19","76.0919","71.9","215.2","320","60.03","30"
"05/11/12 14:57:19","76.0962","61.6","215.24","177","60.03","29"
"05/11/12 15:02:20","76.1004","68.3","216.03","124","60.03","29"